EW1710 Weather Reports


time (UTC)temp
C
wind
direction
speed
KPH
gust
KPH
rain 1hr
cm
rain 24hr
cm
rain mn
cm
humidity
%
barometer
mb
20260506160724 12 349 3.2 4.8 0.00 0.97 0.97 58 1013.3
20260506160220 12 285 1.6 3.2 0.00 0.97 0.97 61 1012.8
20260506155719 12 21 4.8 4.8 0.00 0.97 0.97 61 1012.9
20260506155216 12 5 4.8 11.3 0.00 0.97 0.97 61 1012.8
20260506153323 11 334 4.8 4.8 0.00 0.97 0.97 71 1012.6
20260506152820 11 341 8.0 8.0 0.00 0.97 0.97 68 1012.4
20260506152317 11 249 3.2 3.2 0.00 0.97 0.97 73 1012.3
20260506151816 11 307 3.2 3.2 0.00 0.97 0.97 76 1012.0
20260506151312 11 295 4.8 4.8 0.00 0.97 0.97 73 1012.2
20260506150809 11 271 6.4 8.0 0.00 0.97 0.97 75 1012.2
20260506150307 11 8 6.4 9.7 0.00 0.97 0.97 75 1011.9
20260506145803 10 285 6.4 8.0 0.00 0.97 0.97 78 1012.1
20260506145259 10 7 9.7 11.3 0.00 0.97 0.97 76 1012.0
20260506144757 10 357 4.8 4.8 0.00 0.97 0.97 78 1012.0
20260506144254 10 355 6.4 11.3 0.00 0.97 0.97 77 1011.9
20260506143752 10 307 4.8 3.2 0.00 0.97 0.97 78 1012.2
20260506143249 10 290 4.8 4.8 0.00 0.97 0.97 77 1012.0
20260506142747 10 351 1.6 1.6 0.00 0.97 0.97 80 1011.9
20260506142245 10 293 4.8 8.0 0.00 0.97 0.97 79 1012.0
20260506141743 10 285 6.4 9.7 0.00 0.97 0.97 77 1011.8
20260506141241 10 315 3.2 3.2 0.00 0.97 0.97 80 1011.7
20260506140738 9 288 3.2 3.2 0.00 0.97 0.97 81 1011.8
20260506140235 9 298 6.4 8.0 0.00 0.97 0.97 80 1012.0
20260506135732 9 2 3.2 3.2 0.00 0.97 0.97 84 1011.6
20260506135228 8 16 1.6 1.6 0.00 0.97 0.97 84 1011.8
20260506134725 8 273 4.8 4.8 0.00 0.97 0.97 84 1011.8
20260506134221 8 308 1.6 3.2 0.00 0.97 0.97 86 1011.9
20260506133719 8 332 4.8 4.8 0.00 0.97 0.97 86 1011.7
20260506133215 8 350 1.6 1.6 0.00 0.97 0.97 89 1011.8
20260506132712 8 281 1.6 1.6 0.00 0.97 0.97 89 1011.7
20260506132209 8 338 0.0 0.0 0.00 0.97 0.97 91 1011.7
20260506131707 8 346 4.8 8.0 0.00 0.97 0.97 91 1011.5
20260506131203 8 326 3.2 3.2 0.00 0.97 0.97 92 1011.4
20260506130700 8 351 1.6 1.6 0.00 0.97 0.97 92 1011.4
20260506130157 8 344 3.2 3.2 0.00 0.97 0.97 93 1011.2
20260506125655 8 24 0.0 0.0 0.00 0.97 0.97 93 1011.6
20260506125153 8 11 0.0 0.0 0.00 0.97 0.97 94 1011.0
20260506124650 8 4 0.0 0.0 0.00 0.97 0.97 94 1010.8
20260506124148 8 308 1.6 1.6 0.00 0.97 0.97 94 1010.7
20260506123645 8 319 3.2 3.2 0.00 0.97 0.97 96 1010.8
20260506123144 7 344 1.6 1.6 0.00 0.97 0.97 96 1010.9
20260506122640 7 306 3.2 3.2 0.00 0.97 0.97 96 1010.9
20260506122138 7 313 0.0 0.0 0.00 0.97 0.97 97 1010.9
20260506121635 7 301 4.8 3.2 0.00 0.97 0.97 96 1011.1
20260506121131 7 307 1.6 1.6 0.00 0.97 0.97 97 1010.9
20260506120630 7 302 1.6 1.6 0.00 0.97 0.97 97 1010.9
20260506120127 7 294 0.0 0.0 0.00 0.97 0.97 97 1010.8
20260506115625 7 293 0.0 0.0 0.00 0.97 0.97 97 1010.5
20260506115123 7 357 1.6 1.6 0.00 0.97 0.97 97 1010.7
20260506114620 7 313 0.0 0.0 0.00 0.97 0.97 97 1010.7
20260506114118 7 312 0.0 0.0 0.00 0.97 0.97 97 1010.5
20260506113616 7 312 0.0 0.0 0.00 0.97 0.97 97 1010.3
20260506113113 7 312 0.0 0.0 0.00 0.97 0.97 97 1010.5
20260506112609 7 312 1.6 1.6 0.00 0.97 0.97 97 1010.5
20260506112107 7 312 0.0 0.0 0.00 0.97 0.97 97 1010.4
20260506111604 6 312 1.6 1.6 0.00 0.97 0.97 97 1010.6
20260506111102 6 267 0.0 0.0 0.00 0.97 0.97 97 1010.1
20260506110559 6 267 0.0 0.0 0.00 0.97 0.97 97 1010.1
20260506110056 6 296 0.0 0.0 0.00 0.97 0.97 97 1010.3
20260506105553 6 290 3.2 3.2 0.00 0.97 0.97 97 1009.9
20260506105050 6 18 1.6 1.6 0.00 0.97 0.97 97 1009.5
20260506104548 6 354 0.0 0.0 0.00 0.97 0.97 97 1009.6
20260506104045 6 301 3.2 3.2 0.00 0.97 0.97 97 1009.9
20260506103542 6 339 1.6 1.6 0.00 0.97 0.97 97 1009.6
20260506103039 6 302 3.2 3.2 0.00 0.97 0.97 97 1009.7
20260506102538 6 332 1.6 1.6 0.00 0.97 0.97 97 1009.7
20260506102035 6 317 1.6 1.6 0.00 0.97 0.97 97 1009.4
20260506101531 6 342 1.6 1.6 0.00 0.97 0.97 97 1009.0
20260506101028 6 32 0.0 0.0 0.00 0.97 0.97 97 1008.9
20260506100526 6 39 0.0 0.0 0.00 0.97 0.97 97 1009.0
20260506100024 6 53 1.6 1.6 0.00 0.97 0.97 97 1008.5
20260506095523 7 78 0.0 0.0 0.00 0.97 0.97 97 1008.8
20260506095018 7 77 0.0 0.0 0.00 0.97 0.97 97 1008.9
20260506094517 7 9 1.6 1.6 0.13 0.97 0.97 97 1009.2
20260506094014 7 323 4.8 4.8 0.13 0.97 0.97 97 1009.3
20260506093513 7 313 9.7 14.5 0.00 0.94 0.94 97 1009.9
20260506093010 7 295 4.8 4.8 0.18 0.94 0.94 97 1010.0
20260506092508 7 333 1.6 3.2 0.30 0.94 0.94 97 1010.0
20260506092004 7 315 6.4 8.0 0.13 0.91 0.91 97 1010.0
20260506091502 7 334 3.2 3.2 0.30 0.91 0.91 97 1009.9
20260506090959 7 306 1.6 1.6 0.18 0.89 0.89 97 1009.6
20260506090457 7 312 0.0 0.0 0.13 0.86 0.86 97 1009.3
20260506085953 7 312 1.6 1.6 0.13 0.86 0.86 97 1009.5
20260506085450 7 306 0.0 1.6 0.00 0.84 0.84 97 1009.5
20260506084946 7 303 0.0 0.0 0.00 0.84 0.84 97 1009.7
20260506084443 7 296 3.2 3.2 0.00 0.84 0.84 97 1009.2
20260506083939 7 339 0.0 0.0 0.00 0.84 0.84 97 1009.1
20260506083437 7 339 1.6 1.6 0.00 0.84 0.84 97 1009.4
20260506082934 7 341 0.0 0.0 0.18 0.84 0.84 97 1009.1
20260506082431 7 315 0.0 0.0 0.30 0.84 0.84 97 1009.3
20260506081926 7 319 0.0 0.0 0.13 0.81 0.81 97 1009.5
20260506081425 7 318 1.6 1.6 0.13 0.81 0.81 97 1009.5
20260506080922 7 304 1.6 1.6 0.18 0.79 0.79 97 1009.6
20260506080419 7 311 1.6 1.6 0.30 0.79 0.79 97 1009.6
20260506073403 7 331 3.2 3.2 0.13 0.69 0.69 97 1009.5
20260506072900 7 313 3.2 3.2 0.18 0.66 0.66 97 1009.6
20260506072357 7 337 1.6 1.6 0.18 0.66 0.66 97 1009.1
20260506071855 7 347 4.8 4.8 0.13 0.64 0.64 97 1009.1
20260506071353 7 333 0.0 0.0 0.30 0.64 0.64 97 1008.9
20260506070849 7 310 1.6 1.6 0.18 0.61 0.61 97 1009.0
20260506070346 7 307 1.6 1.6 0.13 0.58 0.58 97 1009.2
20260506062323 7 314 0.0 0.0 0.00 0.48 0.48 96 1009.3
20260506061819 7 319 1.6 1.6 0.13 0.48 0.48 96 1009.5
20260506061316 7 334 0.0 1.6 0.13 0.48 0.48 96 1009.3
20260506060814 7 334 0.0 0.0 0.18 0.46 0.46 96 1009.4
20260506060312 7 334 0.0 0.0 0.30 0.46 0.46 96 1009.4
20260506051244 7 38 0.0 0.0 0.13 0.15 0.15 96 1009.9
20260506050742 7 31 1.6 1.6 0.00 0.13 0.13 96 1009.6
20260506050239 7 341 0.0 0.0 0.18 0.13 0.13 96 1009.7
20260506044730 8 342 1.6 1.6 0.13 0.10 0.10 96 1009.9
20260506044227 8 315 0.0 0.0 0.13 0.10 0.10 96 1009.9
20260506043724 8 328 0.0 0.0 0.18 0.08 0.08 97 1010.0
20260506043221 8 2 0.0 0.0 0.18 0.08 0.08 96 1010.3
20260506042720 8 12 0.0 0.0 0.00 0.05 0.05 97 1010.1
20260506042218 8 45 1.6 1.6 0.00 0.05 0.05 97 1010.1
20260506041716 8 1 0.0 0.0 0.18 0.05 0.05 97 1010.2
20260506041213 8 339 1.6 3.2 0.30 0.05 0.05 97 1010.2
20260506040710 8 325 3.2 3.2 0.30 0.03 0.03 97 1010.4
20260506040207 8 347 0.0 0.0 0.30 0.03 0.03 97 1010.4
20260506035704 8 7 0.0 0.0 0.30 2.82 2.82 97 1010.5
20260506035201 8 6 1.6 1.6 0.30 2.79 2.79 97 1010.3
20260506034657 8 274 1.6 1.6 0.30 2.77 2.77 97 1010.6
20260506034155 8 306 1.6 1.6 0.30 2.74 2.74 97 1010.4
20260506033652 8 301 1.6 1.6 0.30 2.72 2.72 97 1010.7
20260506033149 8 300 1.6 1.6 0.30 2.69 2.69 97 1010.7
20260506032646 8 300 3.2 3.2 0.30 2.67 2.67 97 1010.7
20260506032143 8 306 1.6 1.6 0.30 2.64 2.64 97 1010.6
20260506031640 8 306 0.0 0.0 0.18 2.62 2.62 97 1010.6
20260506031137 9 306 0.0 0.0 0.36 2.62 2.62 97 1010.7
20260506030636 9 307 0.0 0.0 0.30 2.59 2.59 97 1010.8
20260506030132 9 306 0.0 0.0 0.30 2.57 2.57 97 1010.8
20260506025629 9 310 1.6 1.6 0.48 2.54 2.54 97 1010.9
20260506025125 9 319 0.0 0.0 0.43 2.51 2.51 97 1011.0
20260506024623 9 319 0.0 0.0 0.30 2.46 2.46 97 1010.8
20260506024119 9 324 0.0 0.0 0.48 2.44 2.44 97 1010.7
20260506023615 9 241 0.0 0.0 0.61 2.41 2.41 97 1010.4
20260506023113 9 238 0.0 0.0 0.79 2.39 2.39 97 1010.6
20260506022610 9 154 0.0 0.0 0.66 2.34 2.34 97 1010.3
20260506022107 9 302 1.6 1.6 0.48 2.26 2.26 97 1010.5
20260506021605 9 310 0.0 0.0 0.43 2.24 2.24 97 1010.2
20260506021102 9 310 0.0 0.0 0.48 2.21 2.21 97 1010.2
20260506020559 9 284 1.6 1.6 0.30 2.16 2.16 96 1010.3
20260506020056 9 306 0.0 0.0 0.30 2.13 2.13 96 1010.0
20260506015554 9 350 0.0 0.0 0.48 2.11 2.11 96 1010.0
20260506015050 9 350 0.0 0.0 0.43 2.08 2.08 96 1009.5
20260506014548 9 349 0.0 0.0 0.43 2.03 2.03 96 1009.9
20260506014043 9 345 0.0 0.0 0.48 2.01 2.01 96 1010.0
20260506013542 9 340 0.0 0.0 0.36 1.96 1.96 96 1009.9
20260506013038 9 340 0.0 0.0 0.48 1.93 1.93 96 1010.0
20260506012534 9 299 4.8 4.8 0.43 1.91 1.91 96 1010.0
20260506012031 9 304 1.6 1.6 0.43 1.85 1.85 96 1010.2
20260506011529 9 1 0.0 0.0 0.48 1.83 1.83 96 1010.0
20260506011025 9 343 1.6 1.6 0.48 1.78 1.78 96 1009.9
20260506010525 9 309 0.0 0.0 0.30 1.75 1.75 96 1010.0
20260506010021 9 42 1.6 1.6 0.30 1.73 1.73 96 1009.7
20260506005518 9 73 1.6 3.2 0.30 1.70 1.70 96 1009.5
20260506005013 9 68 3.2 3.2 0.48 1.68 1.68 96 1009.3
20260506004511 9 303 4.8 4.8 0.89 1.65 1.65 96 1009.9
20260506004008 9 42 0.0 0.0 0.79 1.60 1.60 96 1009.4
20260506003504 9 58 0.0 0.0 0.30 1.52 1.52 96 1009.5
20260506003000 9 58 0.0 0.0 0.13 1.47 1.47 96 1009.5
20260506002456 9 58 0.0 0.0 0.13 1.47 1.47 96 1009.5
20260506001952 9 57 0.0 0.0 0.00 1.45 1.45 96 1009.4
20260506001449 9 58 0.0 0.0 0.00 1.45 1.45 96 1009.3
20260506000946 9 58 0.0 0.0 0.00 1.45 1.45 96 1009.4
20260506000445 9 61 0.0 0.0 0.00 1.45 1.45 96 1009.5
20260505235940 9 61 0.0 0.0 0.00 1.45 1.45 96 1009.6
20260505235439 9 19 1.6 1.6 0.00 1.45 1.45 95 1009.3
20260505234935 9 20 0.0 0.0 0.18 1.45 1.45 95 1009.4
20260505234433 9 18 1.6 1.6 0.18 1.45 1.45 95 1009.4
20260505233929 10 12 1.6 1.6 0.13 1.42 1.42 95 1009.3
20260505233427 10 24 1.6 1.6 0.30 1.42 1.42 95 1009.5
20260505232924 10 25 1.6 1.6 0.30 1.40 1.40 95 1009.5
20260505232422 10 31 0.0 1.6 0.48 1.37 1.37 95 1009.6
20260505231919 10 25 0.0 0.0 0.66 1.35 1.35 95 1009.5
20260505231416 10 52 0.0 0.0 0.61 1.30 1.30 95 1009.9
20260505230914 10 64 1.6 1.6 0.43 1.24 1.24 95 1009.9
20260505230412 10 337 1.6 1.6 0.61 1.22 1.22 95 1009.9
20260505225908 10 29 4.8 4.8 1.27 1.17 1.17 95 1009.7
20260505225405 10 329 1.6 1.6 1.27 1.12 1.12 94 1010.1
20260505224901 11 307 4.8 8.0 0.79 0.99 0.99 94 1010.1
20260505224358 11 2 1.6 1.6 0.43 0.91 0.91 95 1009.6
20260505223855 11 345 1.6 1.6 0.13 0.86 0.86 94 1009.2
20260505223352 11 8 0.0 0.0 0.00 0.84 0.84 94 1009.4
20260505222848 11 2 1.6 3.2 0.18 0.84 0.84 94 1009.2
20260505222344 11 16 0.0 0.0 0.30 0.84 0.84 94 1009.3
20260505221841 11 349 1.6 1.6 0.13 0.81 0.81 94 1009.4
20260505221338 11 8 0.0 0.0 0.00 0.79 0.79 93 1009.3
20260505220835 11 26 4.8 4.8 0.00 0.79 0.79 92 1009.4
20260505220332 12 342 1.6 3.2 0.18 0.79 0.79 92 1009.2
20260505215830 13 343 4.8 4.8 0.18 0.79 0.79 94 1009.3
20260505215328 13 325 1.6 1.6 0.00 0.76 0.76 94 1009.3
20260505214825 13 18 1.6 1.6 0.13 0.76 0.76 94 1009.3
20260505214323 13 34 0.0 0.0 0.30 0.76 0.76 94 1009.1
20260505213819 13 1 0.0 0.0 0.48 0.74 0.74 93 1008.8
20260505213317 13 0 0.0 0.0 0.48 0.74 0.74 93 1009.1
20260505212813 13 359 1.6 1.6 0.18 0.66 0.66 93 1009.0
20260505212310 13 312 1.6 1.6 0.18 0.66 0.66 93 1009.0
20260505211806 13 331 1.6 1.6 0.00 0.64 0.64 93 1009.2
20260505211304 13 338 1.6 1.6 0.30 0.64 0.64 93 1009.2
20260505210800 13 318 1.6 1.6 1.50 0.64 0.64 93 1009.3
20260505210258 13 36 0.0 0.0 1.80 0.58 0.58 92 1009.2
20260505205754 13 359 1.6 3.2 0.97 0.41 0.41 92 1009.4
20260505205253 14 165 1.6 1.6 0.61 0.28 0.28 92 1009.1
20260505204749 14 318 1.6 1.6 0.71 0.25 0.25 91 1009.2
20260505204247 14 9 0.0 0.0 0.48 0.18 0.18 90 1009.1
20260505203744 14 8 0.0 0.0 0.30 0.13 0.13 90 1009.2
20260505203241 14 319 0.0 0.0 0.13 0.10 0.10 89 1009.0
20260505202736 14 4 1.6 1.6 0.18 0.08 0.08 89 1008.9
20260505202233 14 328 0.0 0.0 0.18 0.08 0.08 89 1009.1
20260505201729 14 319 4.8 3.2 0.00 0.05 0.05 87 1009.3
20260505201227 15 306 4.8 4.8 0.00 0.05 0.05 87 1009.3
20260505200725 15 282 6.4 8.0 0.00 0.05 0.05 86 1009.4
20260505200222 15 26 4.8 3.2 0.00 0.05 0.05 86 1009.0
20260505195717 15 351 1.6 3.2 0.00 0.05 0.05 85 1009.2
20260505195215 15 306 4.8 8.0 0.00 0.05 0.05 84 1009.0
20260505194713 16 302 3.2 3.2 0.18 0.05 0.05 83 1009.1
20260505194209 16 259 0.0 0.0 0.18 0.05 0.05 81 1009.2
20260505193705 16 253 3.2 4.8 0.00 0.03 0.03 79 1009.2
20260505193202 16 269 4.8 4.8 0.00 0.03 0.03 75 1008.9
20260505192701 17 290 1.6 3.2 0.00 0.03 0.03 72 1009.1
20260505192158 17 332 4.8 4.8 0.00 0.03 0.03 71 1009.3
20260505191656 17 330 3.2 3.2 0.00 0.03 0.03 71 1009.0
20260505191154 17 27 0.0 0.0 0.00 0.03 0.03 71 1009.0
20260505190650 17 9 0.0 0.0 0.00 0.03 0.03 70 1009.1
20260505190149 17 323 0.0 0.0 0.00 0.03 0.03 69 1009.2
20260505185647 17 343 1.6 1.6 0.00 0.03 0.03 70 1009.2
20260505185143 17 292 6.4 8.0 0.00 0.03 0.03 69 1009.5
20260505184639 17 254 1.6 1.6 0.00 0.03 0.03 66 1009.6
20260505184136 17 239 1.6 1.6 0.00 0.03 0.03 66 1009.2
20260505183633 18 270 6.4 9.7 0.00 0.03 0.03 67 1009.4
20260505183131 17 16 0.0 0.0 0.00 0.03 0.03 68 1009.5
20260505182627 17 327 1.6 3.2 0.00 0.03 0.03 67 1009.4
20260505182124 18 328 14.5 16.1 0.00 0.03 0.03 64 1009.3
20260505181620 18 302 4.8 4.8 0.00 0.03 0.03 65 1009.3
20260505181118 18 330 1.6 3.2 0.00 0.03 0.03 67 1009.3
20260505180614 18 292 4.8 4.8 0.00 0.03 0.03 65 1009.3
20260505180112 18 211 3.2 4.8 0.00 0.03 0.03 64 1009.6
20260505175607 18 315 9.7 11.3 0.00 0.03 0.03 64 1009.2
20260505175104 18 317 8.0 9.7 0.00 0.03 0.03 63 1009.2
20260505174601 18 212 4.8 9.7 0.00 0.03 0.03 63 1009.2
20260505174056 19 276 11.3 17.7 0.00 0.03 0.03 61 1009.0
20260505173553 18 298 4.8 4.8 0.00 0.03 0.03 62 1009.3
20260505173050 18 339 6.4 4.8 0.00 0.03 0.03 61 1009.0
20260505172548 18 305 4.8 4.8 0.00 0.03 0.03 62 1009.2
20260505172044 18 44 4.8 8.0 0.00 0.03 0.03 61 1009.1
20260505171539 18 303 6.4 11.3 0.00 0.03 0.03 61 1009.1
20260505171036 18 303 6.4 9.7 0.00 0.03 0.03 61 1009.0
20260505170533 18 307 6.4 8.0 0.00 0.03 0.03 61 1009.1
20260505170030 18 221 11.3 12.9 0.00 0.03 0.03 60 1008.9
20260505165525 18 348 11.3 16.1 0.00 0.03 0.03 61 1009.1
20260505165021 18 216 1.6 1.6 0.00 0.03 0.03 61 1008.9
20260505164517 18 317 3.2 3.2 0.00 0.03 0.03 60 1009.1
20260505164015 18 23 4.8 4.8 0.00 0.03 0.03 60 1008.8
20260505163513 18 156 1.6 3.2 0.00 0.03 0.03 62 1009.1
20260505163010 18 9 14.5 20.9 0.00 0.03 0.03 60 1009.0
20260505162503 19 329 3.2 3.2 0.00 0.03 0.03 58 1009.1
20260505162000 19 355 8.0 11.3 0.00 0.03 0.03 58 1008.9
20260505161456 20 317 8.0 8.0 0.00 0.03 0.03 58 1008.9